NOAA 15

Last updated on Sun Oct 06 2024 00:02:17 GMT+0000 (Coordinated Universal Time)

1 25338U 98030A 24279.55682418 .00001081 00000+0 46411-3 0 9992 2 25338 98.5620 304.3543 0010326 8.7889 351.3470 14.26735304372928
UTC large
Height (km)
Speed (km/s)
/
Latitude / Longitude
Inclination (degrees)
Orbital Period (minutes)
Azimuth
Elevation
Range (km)
Doppler Factor

Next 0 passes for location: London (51.5072 / 0.1276)

Sorry there are no passes over London.